Hourly Data Report for September 22, 2018

TORONTO CITY
ONTARIO
Current Station Operator: ECCC - MSC

43°40'00.000" N
79°24'00.000" W
112.50 m
6158355
71508
XTO

Download Data

Hourly Data (September 2018)
Hourly Data Report for September 22, 2018
TIME
LST
Temp Definition
°C
Dew Point Definition
°C
Rel Hum Definition
%
Precip. Amount Definition
mm

Wind Dir Definition
10's deg

Wind Spd Definition
km/h
Visibility Definition
km
Stn Press Definition
kPa
Hmdx Definition


Wind Chill Definition


Weather Definition


00:00 14.6 6.1 57 0.0 LegendMM LegendMM   100.38     LegendNANA
01:00 13.8 6.0 59 0.0 LegendMM LegendMM   100.47     LegendNANA
02:00 13.7 5.9 59 0.0 LegendMM LegendMM   100.59     LegendNANA
03:00 13.0 6.3 64 0.0 LegendMM LegendMM   100.67     LegendNANA
04:00 12.4 6.7 68 0.0 LegendMM LegendMM   100.80     LegendNANA
05:00 11.8 5.4 65 0.0 LegendMM LegendMM   100.93     LegendNANA
06:00 11.0 3.8 61 0.0 LegendMM LegendMM   101.09     LegendNANA
07:00 11.2 3.7 60 0.0 LegendMM LegendMM   101.14     LegendNANA
08:00 11.6 3.5 58 0.0 LegendMM LegendMM   101.19     LegendNANA
09:00 12.4 4.1 57 0.0 LegendMM LegendMM   101.22     LegendNANA
10:00 13.0 3.7 53 0.0 LegendMM LegendMM   101.26     LegendNANA
11:00 13.5 3.3 50 0.0 LegendMM LegendMM   101.28     LegendNANA
12:00 14.0 2.3 45 0.0 LegendMM LegendMM   101.24     LegendNANA
13:00 14.9 2.7 44 0.0 LegendMM LegendMM   101.20     LegendNANA
14:00 15.5 4.1 47 0.0 LegendMM LegendMM   101.12     LegendNANA
15:00 14.9 5.1 52 0.0 LegendMM LegendMM   101.09     LegendNANA
16:00 14.7 5.6 55 0.0 LegendMM LegendMM   101.06     LegendNANA
17:00 14.2 6.0 58 0.0 LegendMM LegendMM   101.04     LegendNANA
18:00 14.1 6.2 59 0.0 LegendMM LegendMM   101.03     LegendNANA
19:00 13.7 5.6 58 0.0 LegendMM LegendMM   101.04     LegendNANA
20:00 14.1 6.7 61 0.0 LegendMM LegendMM   101.04     LegendNANA
21:00 13.2 6.9 65 0.0 LegendMM LegendMM   101.02     LegendNANA
22:00 12.4 6.5 67 0.0 LegendMM LegendMM   101.02     LegendNANA
23:00 11.7 6.4 70 0.0 LegendMM LegendMM   101.04     LegendNANA

Notes on Data Quality.

Legend

  • E = Estimated
  • M = Missing
  • NA = Not Available*
  • [empty] = Indicates an unobserved value
Date modified: